[[{"header":{"parameterUnit":"m.s-1","parameterCategory":1,"la1":30.2991,"la2":30.254,"lo1":-89.0895,"lo2":-89.0444,"dy":0.0017,"dx":0.0017,"nx":28,"ny":28,"refTime":"2023-09-27T03:00:00:Z","depth":0,"parameterNumber":2,"parameterNumberName":"U-component_of_WINDS"},"data":[0,0,0,0,0,0,0,0,0,0,0,0,0,0,0,0,0,0,0,0,0,0,0,0,0,0,0,0,0,0,0,0,0,0,0,0,0,0,0,0,0,0,0,0,0,0,0,0,0,0,0,0,0,0,0,0,0,0,-5.2493,-5.2495,0,-5.272,-5.2722,-5.2725,-5.2672,-5.2668,-5.2664,-5.266,-5.2899,-5.2909,-5.2919,0,0,0,0,0,0,0,0,0,0,0,0,0,-5.202,-5.2029,-5.2492,-5.2495,-5.2498,-5.2719,-5.2722,-5.2725,-5.2673,-5.2668,-5.2663,-5.2658,-5.2895,-5.2907,-5.292,0,0,0,0,0,0,0,0,0,0,0,0,0,-5.2234,-5.2032,-5.2492,-5.2498,-5.2501,-5.2719,-5.2722,-5.2726,-5.2674,-5.2668,-5.2661,-5.2655,-5.2891,-5.2906,-5.2922,-5.3148,0,0,-5.2969,-5.2976,0,0,0,0,0,0,0,0,-5.2222,-5.2251,-5.2495,-5.2498,-5.2502,-5.2661,-5.2643,-5.2868,-5.2676,-5.2609,-5.266,-5.2652,-5.2825,-5.2846,-5.2903,-5.3159,-5.317,-5.2971,-5.298,-5.2987,-5.2991,0,0,0,0,0,0,0,-5.2207,-5.2241,-5.2582,-5.2498,-5.2503,-5.2492,-5.2515,-5.2686,-5.2751,-5.2614,-5.2611,-5.2638,-5.2826,-5.2888,-5.2908,-5.3173,-5.297,-5.2984,-5.2994,-5.3,-5.3629,-5.3636,0,0,0,0,0,0,-5.2188,-5.2229,-5.2575,-5.2589,-5.2343,-5.2506,-5.2532,-5.2617,-5.2749,-5.2763,-5.2644,-5.2635,-5.2865,-5.289,-5.2916,-5.3192,-5.2987,-5.3001,-5.301,-5.3622,-5.3631,-5.3639,0,0,0,0,0,0,-5.2178,-5.222,-5.2566,-5.2409,-5.2452,-5.2521,-5.2617,-5.2625,-5.2686,-5.2771,-5.2783,-5.2695,-5.286,-5.2894,-5.3091,-5.32,-5.3008,-5.3023,-5.3614,-5.3625,-5.3635,-5.3745,0,0,0,0,0,0,-5.2165,-5.2216,-5.2302,-5.2411,-5.246,-5.2735,-5.2623,-5.2634,-5.2713,-5.2704,-5.2822,-5.2835,-5.2858,-5.3068,-5.3107,-5.3218,-5.3035,-5.3604,-5.3619,-5.3632,-5.3732,-5.3758,-5.3781,0,0,0,0,0,-5.2148,-5.2324,-5.2306,-5.2348,-5.2568,-5.2742,-5.277,-5.2791,-5.2721,-5.2809,-5.2864,-5.2832,-5.3181,-5.3089,-5.3132,-5.3249,-5.3597,-5.3614,-5.3631,-5.3721,-5.3753,-5.378,0,0,0,0,0,0,-5.2228,-5.2339,-5.232,-5.2536,-5.263,-5.2732,-5.2843,-5.2824,-5.2941,-5.2928,-5.295,-5.2977,-5.3178,-5.3233,-5.3128,-5.3476,-5.338,-5.3406,-5.3433,-5.3465,-5.3489,-5.3472,-5.3048,0,0,0,0,0,-5.2271,-5.24,-5.249,-5.2673,-5.272,-5.2774,-5.285,-5.2858,-5.2957,-5.2997,-5.3065,-5.3164,-5.3296,-5.3383,-5.3509,-5.3738,-5.3765,-5.3841,-5.3865,-5.3885,-5.3908,-5.4036,-5.4071,-5.3693,-5.3693,-5.3693,0,0,-5.236,-5.2437,-5.2518,-5.2691,-5.2764,-5.29,-5.2808,-5.2955,-5.3058,-5.302,-5.321,-5.3264,-5.3376,-5.359,-5.3688,-5.3642,-5.4018,-5.3906,-5.3921,-5.3934,-5.4056,-5.4092,-5.4124,-5.3705,-5.3703,-5.3701,0,0,-5.2594,-5.2663,-5.2824,-5.2899,-5.3011,-5.3045,-5.3084,-5.319,-5.3224,-5.3414,-5.3389,-5.3512,-5.3738,-5.382,-5.3891,-5.4156,-5.4132,-5.4196,-5.4325,-5.4449,-5.4479,-5.4506,-5.4603,-5.4637,-5.4218,-5.4219,-5.4219,0,-5.2692,-5.2894,-5.2909,-5.306,-5.3138,-5.3107,-5.3272,-5.3344,-5.3493,-5.3548,-5.3494,-5.3778,-5.3851,-5.4086,-5.415,-5.4208,-5.4255,-5.4184,-5.4473,-5.45,-5.4525,-5.4618,-5.4654,-5.4226,-5.4225,-5.4224,-5.4224,0,-5.3011,-5.3151,-5.3268,-5.341,-5.3501,-5.3657,-5.3698,-5.3789,-5.3788,-5.3829,-5.4025,-5.4111,-5.4255,-5.4311,-5.4313,-5.4547,-5.4515,-5.4467,-5.437,-5.4568,-5.4656,-5.4691,-5.4236,-5.4234,-5.4232,-5.423,0,0,-5.3302,-5.345,-5.3493,-5.3558,-5.3679,-5.3789,-5.3945,-5.4084,-5.4163,-5.4266,-5.4399,-5.4591,-5.4548,-5.4629,-5.4639,-5.4748,-5.4955,-5.4687,-5.469,-5.4736,-5.5221,-5.5258,-5.5299,-5.4939,-5.4946,-5.4951,-5.5213,0,-5.3548,-5.3821,-5.384,-5.4087,-5.4219,-5.4192,-5.4329,-5.4419,-5.4462,-5.4581,-5.4629,-5.4766,-5.4696,-5.4745,-5.4851,-5.4907,-5.5053,-5.4888,-5.5066,-5.5072,-5.5041,-5.5344,-5.5384,-5.5627,-5.5247,-5.5252,-5.5257,0,-5.3872,-5.3984,-5.4244,-5.4348,-5.4404,-5.4526,-5.4656,-5.4769,-5.4872,-5.4896,-5.4986,-5.4981,-5.5144,-5.504,-5.5266,-5.5154,-5.5227,-5.5266,-5.5276,-5.5295,-5.5178,-5.5375,-5.5704,-5.5742,-5.531,-5.5306,-5.5302,0,-5.4062,-5.4277,-5.4461,-5.4517,-5.4642,-5.4729,-5.4786,-5.4881,-5.4964,-5.5078,-5.5133,-5.5265,-5.5338,-5.5441,-5.5473,-5.5394,-5.57,-5.5597,-5.5726,-5.5726,-5.5794,-5.5789,-5.6142,-5.5837,-5.5837,-5.5836,-5.5835,0,-5.4336,-5.4497,-5.4548,-5.4662,-5.4842,-5.4863,-5.5042,-5.5093,-5.5179,-5.5304,-5.5289,-5.5407,-5.5441,-5.5566,-5.5592,-5.5777,-5.581,-5.5835,-5.5841,-5.5838,-5.5836,-5.5889,-5.5874,-5.5846,-5.5843,-5.5842,-5.584,0,-5.4579,-5.4619,-5.4819,-5.492,-5.495,-5.5079,-5.5167,-5.5277,-5.5317,-5.5475,-5.5514,-5.5578,-5.5724,-5.5765,-5.5942,-5.5959,-5.6177,-5.6166,-5.6142,-5.6143,-5.627,-5.6259,-5.6672,-5.6728,-5.6384,-5.6387,-5.639,0,-5.4753,-5.4876,-5.499,-5.5072,-5.5132,-5.5264,-5.5348,-5.5373,-5.5462,-5.5588,-5.5685,-5.5828,-5.5945,-5.6181,-5.6244,-5.6379,-5.6373,-5.6508,-5.6393,-5.6387,-5.6378,-5.6371,-5.6385,-5.6531,-5.6535,-5.6537,-5.654,0,-5.5058,-5.5071,-5.5192,-5.5321,-5.5421,-5.5524,-5.5623,-5.5691,-5.5731,-5.5832,-5.598,-5.607,-5.625,-5.6394,-5.6531,-5.6591,-5.6575,-5.6575,-5.6613,-5.6612,-5.6594,-5.6608,-5.6204,-5.6566,-5.6564,-5.6562,-5.656,-5.6559,-5.5273,-5.5382,-5.548,-5.5615,-5.5692,-5.5785,-5.5894,-5.5947,-5.6071,-5.6217,-5.6225,-5.6387,-5.6488,-5.667,-5.6738,-5.6867,-5.6827,-5.688,-5.6895,-5.6908,-5.692,-5.6572,-5.6891,-5.6891,-5.689,-5.6889,-5.6889,0,-5.5579,-5.564,-5.5765,-5.5903,-5.601,-5.5981,-5.609,-5.6182,-5.6324,-5.6419,-5.6534,-5.6706,-5.6845,-5.6919,-5.7059,-5.7148,-5.7144,-5.7184,-5.7179,-5.7194,-5.6946,-5.6901,-5.7186,-5.7186,-5.7185,-5.7185,-5.7185,-5.7185,-5.5751,-5.5934,-5.596,-5.6182,-5.6243,-5.64,-5.6464,-5.6551,-5.6627,-5.6819,-5.6934,-5.6981,-5.7068,-5.7214,-5.7342,-5.7361,-5.7414,-5.746,-5.7474,-5.7242,-5.7211,-5.7183,-5.714,-5.7471,-5.7471,-5.7712,-5.7714,-5.7716]},{"header":{"parameterUnit":"m.s-1","parameterCategory":1,"la1":30.2991,"la2":30.254,"lo1":-89.0895,"lo2":-89.0444,"dy":0.0017,"dx":0.0017,"nx":28,"ny":28,"refTime":"2023-09-27T03:00:00:Z","depth":0,"parameterNumber":3,"parameterNumberName":"V-component_of_WINDS"},"data":[0,0,0,0,0,0,0,0,0,0,0,0,0,0,0,0,0,0,0,0,0,0,0,0,0,0,0,0,0,0,0,0,0,0,0,0,0,0,0,0,0,0,0,0,0,0,0,0,0,0,0,0,0,0,0,0,0,0,-0.492,-0.4923,0,-0.5202,-0.5205,-0.5209,-0.5347,-0.5346,-0.5346,-0.5346,-0.5644,-0.5652,-0.566,0,0,0,0,0,0,0,0,0,0,0,0,0,-0.4509,-0.4516,-0.492,-0.4924,-0.4927,-0.5202,-0.5205,-0.5209,-0.5347,-0.5346,-0.5346,-0.5346,-0.5641,-0.5651,-0.566,0,0,0,0,0,0,0,0,0,0,0,0,0,-0.4729,-0.4518,-0.4919,-0.5028,-0.5041,-0.5201,-0.5206,-0.521,-0.5347,-0.5346,-0.5346,-0.5346,-0.5638,-0.565,-0.5662,-0.5737,0,0,-0.5698,-0.5703,0,0,0,0,0,0,0,0,-0.4717,-0.4744,-0.5009,-0.5021,-0.5035,-0.5239,-0.517,-0.5387,-0.5347,-0.5231,-0.5346,-0.5346,-0.551,-0.5532,-0.5586,-0.5751,-0.5764,-0.5699,-0.5706,-0.5712,-0.5715,0,0,0,0,0,0,0,-0.4701,-0.4733,-0.5032,-0.5013,-0.5029,-0.5066,-0.5097,-0.5212,-0.5368,-0.5241,-0.5251,-0.5283,-0.5517,-0.5574,-0.5594,-0.5768,-0.5699,-0.5709,-0.5717,-0.5722,-0.6012,-0.6013,0,0,0,0,0,0,-0.4667,-0.4719,-0.5023,-0.504,-0.4872,-0.5073,-0.5108,-0.5174,-0.5367,-0.5396,-0.5282,-0.5288,-0.5553,-0.558,-0.5605,-0.5708,-0.5711,-0.5723,-0.573,-0.6012,-0.6012,-0.6013,0,0,0,0,0,0,-0.4658,-0.4693,-0.5012,-0.4883,-0.4926,-0.5081,-0.5153,-0.5179,-0.5236,-0.5398,-0.5427,-0.5311,-0.5554,-0.5588,-0.5703,-0.572,-0.5728,-0.5739,-0.6011,-0.6012,-0.6013,-0.5912,0,0,0,0,0,0,-0.4645,-0.4688,-0.4717,-0.4882,-0.4932,-0.5102,-0.5154,-0.5185,-0.5255,-0.5265,-0.5433,-0.546,-0.5557,-0.5684,-0.5715,-0.5736,-0.5748,-0.601,-0.6012,-0.6013,-0.5915,-0.5909,-0.5905,0,0,0,0,0,-0.463,-0.4679,-0.4717,-0.4753,-0.497,-0.5103,-0.5132,-0.5239,-0.5256,-0.5287,-0.5391,-0.5455,-0.5712,-0.5695,-0.5731,-0.5756,-0.601,-0.6011,-0.6012,-0.5917,-0.591,-0.5905,0,0,0,0,0,0,-0.4514,-0.4702,-0.4747,-0.485,-0.4959,-0.5126,-0.5168,-0.5229,-0.5338,-0.5343,-0.5474,-0.5511,-0.5615,-0.5697,-0.5674,-0.584,-0.5868,-0.5876,-0.5783,-0.5778,-0.5773,-0.5752,-0.5758,0,0,0,0,0,-0.45,-0.4589,-0.475,-0.4825,-0.4877,-0.5013,-0.5075,-0.5148,-0.5267,-0.5315,-0.5427,-0.5543,-0.5651,-0.5719,-0.5826,-0.5927,-0.5967,-0.5962,-0.5957,-0.5952,-0.5958,-0.602,-0.602,-0.6017,-0.6017,-0.6017,0,0,-0.4473,-0.4587,-0.4635,-0.4805,-0.4898,-0.499,-0.5051,-0.5146,-0.5216,-0.533,-0.5445,-0.5532,-0.567,-0.5778,-0.5832,-0.585,-0.5967,-0.5953,-0.5948,-0.5958,-0.6021,-0.6021,-0.6021,-0.6018,-0.6018,-0.6018,0,0,-0.4471,-0.4564,-0.4638,-0.4729,-0.4868,-0.4958,-0.4975,-0.5133,-0.5194,-0.5311,-0.5399,-0.5486,-0.5667,-0.5763,-0.5835,-0.5868,-0.5932,-0.59,-0.5875,-0.5933,-0.5933,-0.5934,-0.5948,-0.5951,-0.5905,-0.5905,-0.5905,0,-0.4421,-0.456,-0.4669,-0.4759,-0.4832,-0.4936,-0.5014,-0.5098,-0.5266,-0.5315,-0.5332,-0.5562,-0.5663,-0.5796,-0.5803,-0.5858,-0.5884,-0.5882,-0.5923,-0.5926,-0.5928,-0.5943,-0.5948,-0.59,-0.5901,-0.5901,-0.5902,0,-0.4492,-0.4587,-0.4631,-0.4787,-0.4865,-0.4947,-0.5073,-0.5139,-0.5205,-0.5294,-0.5413,-0.5537,-0.5672,-0.5708,-0.5775,-0.5852,-0.5859,-0.5897,-0.5928,-0.5922,-0.5938,-0.5945,-0.5893,-0.5895,-0.5897,-0.5898,0,0,-0.4426,-0.4641,-0.4655,-0.4728,-0.4888,-0.4966,-0.5054,-0.5183,-0.5238,-0.5351,-0.543,-0.5581,-0.5618,-0.57,-0.5779,-0.5829,-0.585,-0.5863,-0.5869,-0.5858,-0.5944,-0.5915,-0.5919,-0.5892,-0.5894,-0.5895,-0.5933,0,-0.4448,-0.4608,-0.4709,-0.4831,-0.4921,-0.5021,-0.5099,-0.5208,-0.5293,-0.5385,-0.5481,-0.5586,-0.5626,-0.5676,-0.5731,-0.5835,-0.5869,-0.5834,-0.5971,-0.5974,-0.5934,-0.5928,-0.5897,-0.5927,-0.594,-0.5941,-0.5942,0,-0.4495,-0.4601,-0.473,-0.4881,-0.4923,-0.499,-0.5117,-0.5203,-0.5329,-0.5388,-0.5478,-0.5557,-0.5658,-0.5678,-0.5821,-0.5794,-0.5857,-0.5917,-0.5921,-0.5939,-0.5959,-0.5948,-0.5939,-0.5944,-0.5953,-0.5952,-0.5951,0,-0.4436,-0.4612,-0.4712,-0.4771,-0.4949,-0.4994,-0.5071,-0.5197,-0.5268,-0.538,-0.5428,-0.5551,-0.5619,-0.5714,-0.5825,-0.5829,-0.5958,-0.5987,-0.6012,-0.6009,-0.6036,-0.6033,-0.6039,-0.6072,-0.6072,-0.6072,-0.6072,0,-0.4451,-0.4526,-0.4688,-0.4749,-0.4838,-0.4955,-0.504,-0.5126,-0.5237,-0.5319,-0.5414,-0.5491,-0.5632,-0.5727,-0.5815,-0.5921,-0.595,-0.6003,-0.6026,-0.5996,-0.5989,-0.604,-0.6041,-0.6074,-0.6073,-0.6073,-0.6073,0,-0.44,-0.4511,-0.4627,-0.4785,-0.4827,-0.4885,-0.5022,-0.5088,-0.5177,-0.5281,-0.5312,-0.5454,-0.5571,-0.569,-0.5849,-0.5908,-0.6012,-0.6042,-0.5968,-0.5981,-0.6,-0.5997,-0.604,-0.6053,-0.6075,-0.6074,-0.6074,0,-0.4403,-0.4463,-0.4626,-0.4687,-0.476,-0.4857,-0.4929,-0.5047,-0.5119,-0.5267,-0.5316,-0.5438,-0.5543,-0.5724,-0.5844,-0.5966,-0.6002,-0.6008,-0.6021,-0.5989,-0.6004,-0.6,-0.6008,-0.6004,-0.6003,-0.6002,-0.6002,0,-0.4397,-0.4448,-0.4547,-0.4665,-0.4748,-0.4848,-0.4952,-0.4997,-0.5136,-0.5212,-0.533,-0.5411,-0.5571,-0.5693,-0.5829,-0.5913,-0.5982,-0.5996,-0.6009,-0.598,-0.5935,-0.5961,-0.5957,-0.5995,-0.5996,-0.5997,-0.5997,-0.5997,-0.4376,-0.4434,-0.4557,-0.4665,-0.4754,-0.4848,-0.4918,-0.5015,-0.5114,-0.5252,-0.5316,-0.5435,-0.5562,-0.5751,-0.5833,-0.593,-0.595,-0.5967,-0.5972,-0.5975,-0.5969,-0.5917,-0.5955,-0.5956,-0.5956,-0.5956,-0.5956,0,-0.4376,-0.4459,-0.4557,-0.4697,-0.4782,-0.4835,-0.4953,-0.5022,-0.5124,-0.5234,-0.5334,-0.5471,-0.5589,-0.5717,-0.5844,-0.5898,-0.5933,-0.5927,-0.5926,-0.5944,-0.5943,-0.592,-0.5897,-0.5897,-0.5897,-0.5897,-0.5897,-0.5897,-0.4386,-0.4487,-0.4553,-0.4701,-0.4787,-0.4901,-0.4963,-0.5052,-0.5141,-0.5288,-0.5386,-0.5467,-0.5586,-0.5722,-0.5834,-0.5869,-0.5913,-0.5898,-0.5943,-0.594,-0.5944,-0.5948,-0.5928,-0.5906,-0.5906,-0.5936,-0.5936,-0.5937]}]]